Dewpoint
69 69 69 69 69 69 69 69 69 69 69 69 69 69 70 71 71 70 71 72 72 72 72 72 72 72 73 73 73 73 73 74 74 74 74 73 73 73 73 73 73 73 72 71 70 69 69 68 67 66 65 64 64 64 65 65 65 66 66 64 63 62 60 59 57 57 58 61 61 61 62 62 62 63 62 63 64 65 67 66 66 66 65 64 62
69 69 69 69 69 69 69 69 69 69 69 69 69 69 69 70 71 71 70 71 72 72 72 73 73 72 72 73 73 73 73 73 74 74 74 73 73 73 73 73 73 72 72 72 71 70 69 68 68 68 67 65 64 64 64 64 64 65 65 65 64 64 62 60 59 58 57 59 61 63 64 64 61 63 62 62 63 65 65 66 66 66 65 65 63
68 69 69 69 69 69 69 69 69 69 69 69 69 69 70 70 71 71 71 71 72 73 73 73 73 73 72 72 73 73 73 73 73 73 73 73 73 73 73 73 73 72 72 72 72 71 70 69 69 68 68 66 66 65 64 64 64 64 64 65 64 64 64 62 60 59 58 59 60 61 63 64 63 63 63 63 64 64 64 64 65 66 66 65 64
68 69 69 69 69 69 69 69 69 69 69 69 69 69 70 70 71 71 71 71 71 72 73 73 73 73 72 72 72 73 73 73 73 73 73 73 73 73 73 73 73 73 72 72 72 72 71 70 70 69 68 67 67 66 65 65 64 64 63 64 65 64 64 64 63 61 60 60 60 61 61 62 63 64 64 65 64 64 64 64 65 65 66 66 65
68 68 69 69 69 69 69 69 69 69 69 69 69 70 70 70 70 71 72 72 71 71 72 73 73 73 73 72 72 72 73 73 73 73 73 73 73 73 73 73 73 73 73 72 73 72 72 71 71 70 69 68 68 67 67 66 65 64 63 63 64 65 64 64 64 63 62 61 60 61 62 62 63 64 64 64 64 64 64 64 64 64 65 65 66
68 68 69 69 69 69 69 69 69 69 69 69 69 69 70 70 70 71 71 72 72 72 71 72 72 72 73 73 73 73 73 73 73 73 73 73 73 73 73 73 73 73 73 73 72 72 72 72 71 71 70 69 68 68 68 67 66 65 64 64 64 64 64 64 64 64 63 62 62 61 60 62 62 63 64 64 63 63 63 64 64 65 65 64 65
69 69 69 69 69 69 69 69 69 69 69 69 69 69 69 70 70 70 71 71 72 72 72 71 72 72 72 72 73 73 73 73 73 73 73 73 73 73 73 73 73 73 73 73 73 73 72 72 72 71 71 70 69 69 68 68 67 66 66 65 64 64 63 64 64 64 63 63 63 63 62 62 62 61 62 64 64 63 62 62 62 64 65 64 64
69 69 69 69 69 70 70 69 69 69 70 70 70 69 69 70 70 70 70 70 71 71 72 72 72 72 72 72 72 72 72 73 73 73 73 73 73 73 73 73 73 73 73 73 73 73 73 73 72 72 71 71 70 70 69 68 68 67 67 66 65 64 63 63 63 63 63 63 63 62 62 62 61 63 63 62 63 63 64 62 61 61 63 64 64
70 69 69 69 70 70 70 70 70 70 70 70 70 70 70 70 70 70 70 70 70 70 71 72 72 72 72 72 72 72 72 72 73 73 73 73 73 73 73 73 73 73 73 73 73 73 73 73 73 73 73 71 69 68 68 67 68 67 67 67 66 65 64 63 63 63 63 63 62 63 63 62 62 62 62 62 62 61 62 63 63 62 63 63 64
70 70 70 70 70 70 70 71 70 70 70 70 70 70 70 70 70 70 70 70 70 70 70 71 72 72 72 72 72 72 72 72 70 66 68 73 73 73 73 73 73 73 73 73 73 73 73 73 73 72 69 67 67 66 65 65 65 67 68 67 66 66 65 64 63 63 62 62 62 62 61 61 61 62 62 62 62 63 62 62 62 62 60 62 63
70 70 70 71 71 71 71 71 71 70 70 70 70 70 70 70 70 70 70 70 70 70 70 69 70 71 72 72 72 72 72 72 67 64 64 66 71 73 73 73 73 73 73 73 73 73 73 73 73 73 71 68 69 65 65 64 64 64 64 65 66 66 65 64 64 63 63 62 62 62 62 61 61 62 62 62 62 62 62 62 62 62 61 61 60
71 71 71 71 71 71 71 71 71 71 71 70 70 70 70 70 70 70 70 70 70 70 70 69 69 69 70 71 71 72 72 67 65 64 63 63 66 72 73 73 73 73 73 73 73 73 73 73 73 73 73 73 73 72 68 65 63 63 63 63 63 63 64 66 65 64 64 63 63 62 62 62 62 62 62 62 62 62 63 63 62 62 61 61 61
71 71 71 71 71 71 71 71 71 71 71 71 71 71 70 70 70 70 70 70 70 70 70 70 69 69 69 69 70 71 71 66 64 63 63 62 62 66 72 72 73 73 73 73 73 73 73 73 73 73 73 70 72 72 72 72 66 62 62 62 62 62 62 62 62 66 66 64 64 63 63 63 62 62 63 63 63 62 62 62 63 63 62 62 61
71 71 71 72 72 72 72 71 71 71 71 71 71 71 70 70 70 70 70 70 70 70 70 70 70 69 69 69 69 70 70 66 63 61 61 61 62 63 70 72 72 72 73 73 73 73 73 73 72 72 72 73 72 72 72 72 72 71 69 67 67 66 63 61 60 60 63 65 65 65 65 65 64 64 64 64 63 62 62 62 62 63 63 62 62
71 71 71 72 72 72 72 72 71 71 71 71 71 71 71 70 70 70 70 70 70 70 70 70 70 70 70 69 69 69 69 64 62 60 59 59 61 62 69 71 72 72 72 73 73 73 73 73 73 73 72 72 72 72 72 72 72 72 71 71 70 69 68 68 67 65 65 65 65 66 66 66 66 65 65 65 64 64 63 63 63 63 63 63 63
71 71 71 72 72 72 72 72 72 72 72 71 71 71 71 71 70 70 70 70 70 70 70 70 70 70 70 70 69 69 69 63 61 60 59 59 60 66 69 70 71 72 72 72 73 73 73 73 73 73 73 73 70 66 67 72 72 71 71 71 71 71 70 66 65 65 67 67 66 66 66 67 64 67 67 65 65 65 64 66 65 63 63 62 62
71 71 72 72 72 72 72 72 72 72 72 71 71 71 71 71 71 71 70 70 69 69 69 69 70 69 70 70 70 69 69 65 60 58 58 58 59 67 68 70 71 71 72 72 72 73 73 73 73 73 73 73 69 65 64 65 71 71 71 71 71 71 71 71 65 62 62 61 61 62 62 62 62 61 60 60 63 64 67 66 64 63 63 62 62
71 71 72 72 72 72 72 72 72 72 72 71 71 71 71 71 71 71 70 70 69 69 69 69 69 69 69 69 70 69 69 66 60 57 57 57 61 68 69 69 70 71 71 72 72 72 73 71 73 73 73 73 67 64 63 65 69 71 71 71 71 71 71 71 71 68 61 60 60 61 61 61 62 62 62 61 60 60 68 65 64 65 64 64 63
70 71 72 72 73 73 73 73 72 72 72 71 71 71 71 71 71 71 71 70 70 70 69 69 69 69 69 69 68 69 69 67 60 58 56 56 61 68 69 70 70 70 71 71 72 72 72 72 70 69 71 70 65 63 62 64 70 71 71 71 71 71 71 72 72 71 70 67 66 66 66 64 66 66 65 61 61 63 65 66 66 66 64 64 64
70 71 71 72 73 73 73 73 73 72 72 72 72 71 71 71 71 71 71 70 70 70 70 69 69 69 69 69 69 70 70 70 68 58 56 55 57 68 70 70 70 70 71 71 71 71 72 72 71 64 62 62 61 61 60 58 68 71 72 71 71 71 71 73 72 72 72 72 70 69 69 68 68 67 67 67 67 68 65 65 66 67 66 65 65
71 71 71 72 72 73 73 73 73 73 72 72 72 72 71 71 71 70 70 70 70 70 70 69 69 69 69 69 69 70 70 70 70 58 56 55 55 60 69 70 71 71 71 71 71 71 72 72 72 67 62 60 58 56 55 56 58 67 70 71 72 71 67 70 71 69 71 68 67 67 67 68 68 68 68 67 67 67 67 65 66 67 67 65 65
72 72 72 72 72 73 73 73 73 73 73 73 72 72 72 71 71 70 70 70 70 70 70 70 69 69 69 69 69 70 71 68 71 61 56 55 55 55 67 70 71 71 71 71 71 72 72 72 72 70 64 61 58 55 53 54 55 62 65 60 59 58 63 66 67 68 68 67 66 66 66 66 66 67 67 67 68 68 67 67 67 67 67 67 66
71 71 71 72 72 72 73 73 73 74 73 73 73 72 72 72 71 71 71 70 70 70 70 70 70 69 69 70 70 70 71 70 65 68 58 55 54 54 58 65 64 71 71 71 72 72 73 73 71 58 52 50 51 51 52 52 53 60 55 54 55 56 58 63 65 66 67 67 66 66 65 65 65 65 66 66 66 67 68 69 69 68 67 67 67
71 71 71 71 72 72 73 73 73 73 74 73 73 73 72 72 72 72 71 71 70 70 70 70 70 70 69 70 71 71 71 71 67 63 64 56 55 54 54 56 61 69 71 72 71 70 67 64 62 54 52 51 51 53 53 53 59 55 53 53 54 55 61 63 64 66 66 66 65 65 65 65 65 65 65 65 65 66 67 68 69 69 68 67 67
71 71 71 71 72 73 73 73 73 73 74 74 73 73 73 73 72 72 72 71 71 71 71 71 71 70 70 70 71 72 72 73 69 64 63 59 55 54 54 55 55 57 65 68 67 66 58 55 53 53 53 53 53 54 57 59 58 56 55 54 59 63 63 64 64 65 65 65 65 65 65 65 65 66 66 66 66 67 67 67 68 68 69 68 67
71 71 71 71 72 73 73 73 73 74 74 74 74 73 73 73 73 73 72 72 72 71 71 71 71 71 71 71 71 72 70 67 65 63 62 60 57 54 54 54 56 56 59 63 59 58 57 56 55 57 59 60 63 63 63 63 58 57 57 59 63 63 63 63 64 63 63 64 64 65 65 66 66 66 66 67 66 66 66 66 67 67 68 68 68
73 71 71 71 71 73 73 74 74 74 74 74 74 74 73 73 73 73 73 73 72 72 72 72 72 72 72 72 72 69 67 66 65 64 62 62 61 58 56 57 55 58 60 62 62 63 63 63 61 56 57 57 59 59 60 60 60 60 60 60 61 61 61 61 61 62 62 62 63 63 64 65 66 66 66 66 66 66 66 66 66 66 66 67 67
72 71 70 71 72 73 73 76 75 75 74 73 74 74 74 74 74 73 73 73 73 73 73 73 72 72 72 73 69 65 63 64 65 65 63 63 61 60 60 61 60 62 62 62 61 62 60 59 59 62 62 61 60 60 60 60 59 58 59 59 59 59 61 59 60 61 61 62 62 63 63 63 63 63 63 64 65 65 65 65 65 65 65 66 66
71 71 71 71 72 73 73 75 74 70 62 59 54 53 54 55 66 72 70 70 74 74 74 74 73 74 74 72 67 64 62 63 64 59 64 60 62 63 63 62 61 60 58 55 60 60 60 61 60 60 60 60 59 59 59 59 60 59 59 59 60 60 60 60 59 60 60 60 60 60 60 60 61 61 61 61 62 63 64 65 65 65 65 65 65
69 69 70 71 71 72 73 72 69 66 63 61 58 56 52 47 48 56 62 57 55 56 64 74 74 74 73 66 64 67 65 63 48 46 46 47 48 50 51 50 50 52 51 52 58 59 60 60 59 59 58 58 58 58 58 58 59 59 60 58 60 60 59 59 59 59 59 59 59 59 59 59 59 59 60 60 60 61 62 61 64 64 64 64 64
68 69 69 70 70 71 70 69 67 66 65 63 62 61 60 56 46 45 49 50 47 47 55 60 63 65 67 62 55 51 50 47 45 44 44 44 44 44 44 44 45 46 50 58 59 59 59 59 57 57 56 55 57 58 58 58 59 59 59 59 59 59 59 59 59 59 59 59 59 59 59 58 58 58 58 59 59 60 60 61 62 63 64 64 64
68 68 68 68 69 69 69 68 66 65 65 64 64 63 61 60 58 49 45 47 46 44 44 46 50 52 53 55 54 54 49 46 45 45 44 44 43 42 42 42 43 45 47 52 59 57 57 57 55 56 56 56 57 58 59 59 59 58 58 59 59 59 59 59 58 59 59 58 58 58 58 58 58 58 58 58 58 58 59 60 61 62 63 64 64
68 68 67 68 68 69 67 67 66 65 65 65 64 63 62 61 58 56 54 47 46 45 45 45 46 47 48 48 48 49 48 45 45 44 44 43 42 42 42 42 43 45 52 58 58 56 54 56 57 57 57 58 59 60 60 60 60 59 58 59 59 59 59 59 57 58 58 58 58 58 58 58 57 57 57 58 59 59 59 60 61 61 62 62 62
68 67 67 67 67 67 66 66 65 65 65 65 64 63 62 61 58 57 56 56 56 52 49 46 45 46 46 47 47 46 45 45 45 44 43 43 43 43 44 45 41 44 51 58 57 56 54 55 55 57 59 60 60 60 60 60 60 60 59 59 59 59 59 59 58 58 58 58 58 57 57 57 57 57 58 59 59 60 60 60 61 61 62 62 62
68 71 70 69 66 66 65 65 64 64 64 64 64 62 61 61 61 60 59 57 57 56 56 57 51 46 52 48 45 44 45 44 44 43 43 43 43 43 48 60 60 59 56 55 56 56 56 56 58 59 60 60 60 60 61 61 60 60 60 60 59 59 58 58 58 57 57 58 57 57 57 57 57 57 57 58 59 59 60 60 61 62 62 62 62
67 67 67 67 66 64 64 62 62 62 62 61 62 62 63 62 60 59 57 59 58 58 58 59 58 52 48 43 41 42 42 43 42 42 42 42 43 48 59 57 57 56 56 55 55 55 56 56 59 60 61 60 61 61 61 61 60 60 60 60 59 58 58 57 57 57 57 57 57 57 56 57 57 57 57 58 58 59 60 61 61 61 61 62 62
65 66 67 66 65 64 63 62 61 60 61 61 61 61 61 61 61 60 60 60 60 59 59 60 60 60 58 57 49 42 41 41 41 41 42 41 40 52 58 56 57 56 57 56 56 57 55 56 58 61 61 60 61 61 61 60 60 60 58 59 59 58 57 57 57 57 57 57 57 57 57 57 57 57 57 56 57 58 58 59 60 60 60 60 59
63 64 66 66 65 64 63 61 61 61 62 62 62 62 62 60 60 60 61 60 61 61 61 61 62 61 61 61 60 54 49 44 44 44 43 46 54 59 58 58 57 58 56 55 56 55 56 55 58 61 60 60 60 60 60 59 60 60 59 59 58 58 55 57 57 56 57 57 56 56 56 56 57 57 56 56 57 57 57 57 58 59 61 60 60
61 60 60 61 63 65 63 63 63 63 63 63 63 64 63 63 63 63 62 62 62 61 60 58 58 58 58 59 59 59 58 59 59 58 59 58 58 58 58 57 57 56 57 56 56 56 56 58 59 60 60 60 59 59 59 59 59 59 59 58 58 57 57 56 56 56 56 56 56 56 56 56 57 57 56 56 56 57 57 56 57 57 58 60 61
61 60 60 60 61 61 62 63 62 62 63 62 62 63 63 63 62 62 61 60 59 58 57 56 55 55 55 57 58 60 59 59 59 59 59 58 58 57 57 57 57 56 57 56 57 58 59 60 59 58 58 59 59 59 59 59 59 58 58 58 57 57 57 56 55 55 55 56 55 56 56 56 56 56 56 56 56 56 56 56 56 56 56 57 57
60 60 61 59 59 60 61 61 59 59 60 60 60 61 61 61 60 60 59 58 58 57 56 55 54 54 52 50 50 53 59 59 58 59 58 58 57 57 57 56 56 57 57 58 59 60 60 59 58 58 58 58 58 58 59 59 58 58 58 57 57 57 56 56 55 55 55 55 55 55 55 55 56 55 55 55 54 55 56 56 56 56 56 56 56
58 57 58 58 57 58 57 58 58 57 57 58 57 57 58 57 56 56 56 56 56 55 54 54 53 53 49 48 47 49 57 59 58 57 58 57 58 58 58 58 57 58 58 59 59 58 58 58 58 57 57 56 57 57 58 58 58 58 57 57 57 56 56 56 55 55 55 55 55 55 55 55 55 55 55 52 55 55 55 55 56 56 56 56 56
58 57 57 58 57 57 56 56 55 55 55 55 55 56 55 54 53 54 54 54 53 53 52 52 52 52 51 48 50 51 56 57 58 58 59 59 59 59 60 60 60 60 59 59 59 60 60 59 58 56 55 55 55 56 57 57 57 57 56 56 56 56 55 55 55 55 55 54 54 54 54 54 55 55 55 55 55 55 55 55 54 55 55 55 55
57 56 56 56 55 55 55 54 54 54 54 55 54 53 52 52 51 51 51 51 51 50 50 50 50 50 50 49 49 50 52 53 54 54 55 57 58 58 58 58 58 57 57 57 57 58 58 58 57 56 54 54 53 53 53 53 53 54 54 54 54 54 54 54 54 54 54 54 54 54 54 54 54 54 54 55 55 55 55 55 54 54 54 54 54
54 54 54 53 53 53 52 53 52 52 52 51 50 50 51 50 49 49 49 49 49 49 48 49 49 49 49 48 49 49 48 49 51 51 52 52 53 54 55 57 57 56 56 56 56 56 55 55 55 54 53 52 52 51 50 50 50 50 51 51 51 51 51 51 52 53 53 53 53 53 53 53 53 53 54 54 54 54 54 54 55 54 54 53 53
53 53 53 52 52 52 51 51 51 50 50 49 49 48 48 48 48 48 48 48 47 47 47 47 47 47 47 47 47 48 47 47 47 48 49 49 50 51 51 53 53 52 52 52 53 51 49 49 48 49 49 49 49 49 49 48 48 47 47 47 48 48 48 48 49 50 51 52 52 52 52 52 53 52 55 53 52 53 53 54 54 54 54 53 53
53 53 52 52 51 51 50 49 49 48 48 48 47 47 46 46 46 48 48 47 46 46 46 46 46 46 46 46 46 46 46 46 46 46 46 46 47 48 49 50 49 48 47 46 47 46 45 44 43 42 43 44 44 45 46 46 45 44 44 44 44 43 42 42 44 46 50 51 51 51 51 51 52 52 52 52 51 51 51 52 52 53 53 53 53
51 51 52 51 50 49 49 48 48 49 47 47 46 46 46 45 45 45 44 45 44 45 44 44 45 45 45 45 45 45 45 45 46 46 46 45 45 45 46 47 46 45 46 44 44 44 44 44 44 43 42 42 42 41 42 43 42 40 39 39 39 39 38 38 42 47 49 49 50 50 50 50 51 51 51 50 49 50 50 50 51 50 51 51 52
50 50 49 49 49 49 49 47 47 45 45 44 44 43 44 42 42 42 42 42 42 43 42 43 43 44 44 44 45 45 45 46 45 45 45 45 45 44 44 45 45 44 44 43 43 42 42 42 42 42 41 41 41 41 41 41 40 39 38 37 37 37 35 36 38 41 40 47 50 49 49 49 49 50 50 49 48 48 49 49 48 49 50 50 50
49 49 49 49 48 48 47 47 46 45 46 43 41 41 41 41 40 41 40 40 40 41 40 41 42 42 43 43 44 43 43 43 43 43 43 44 44 44 43 43 43 43 42 43 42 41 41 40 40 40 40 40 40 39 40 40 41 40 39 38 37 35 34 35 37 38 40 44 49 49 49 49 49 49 48 48 47 47 48 48 48 48 48 48 48
48 47 48 47 47 47 46 44 41 39 38 37 36 36 36 36 37 38 38 38 39 39 39 39 40 41 41 41 43 43 43 43 43 43 43 43 44 44 43 42 42 42 42 41 41 40 40 39 39 39 39 39 39 38 39 40 40 40 38 38 36 36 36 36 37 36 37 40 46 47 47 47 47 48 48 48 47 46 49 50 48 47 47 47 47